DLH5MJ EDDM-EDDH

Flight info

Callsign DLH5MJ
Flight time 1h 2m
Altitude 36000
Route INPUD3Q INPUD Y102 UPALA M726 NARUS DCT ABGUS DCT DIRBO/N0375F230 T902 RARUP RARUP6A
Aircraft A321/M-SDE3FGHIRWY/LB1

Departure

Time 2026-05-06 12:54
Airport Munich Airport (EDDM)

Arrival

Time 2026-05-06 13:56
Airport Hamburg Helmut Schmidt Airport (EDDH)
Time Latitude Longitude Altitude Speed Heading
2026-05-06 12:21 48.35582 11.79722 1486 ft 0 kts 83°
2026-05-06 12:43 48.35582 11.79719 1483 ft 3 kts 83°
2026-05-06 12:43 48.35578 11.79680 1476 ft 4 kts 75°
2026-05-06 12:43 48.35569 11.79641 1471 ft 4 kts 63°
2026-05-06 12:43 48.35555 11.79607 1471 ft 4 kts 48°
2026-05-06 12:44 48.35535 11.79583 1480 ft 4 kts 18°
2026-05-06 12:44 48.35520 11.79578 1474 ft 0 kts 353°
2026-05-06 12:47 48.35566 11.79549 1478 ft 13 kts 328°
2026-05-06 12:47 48.35681 11.79475 1478 ft 22 kts 347°
2026-05-06 12:48 48.35791 11.79447 1482 ft 11 kts 353°
2026-05-06 12:48 48.35855 11.79427 1478 ft 10 kts 340°
2026-05-06 12:48 48.35916 11.79366 1478 ft 11 kts 328°
2026-05-06 12:48 48.35997 11.79333 1481 ft 13 kts 353°
2026-05-06 12:49 48.36081 11.79290 1482 ft 13 kts 301°
2026-05-06 12:49 48.36080 11.79144 1485 ft 15 kts 264°
2026-05-06 12:49 48.36068 11.78982 1482 ft 16 kts 263°
2026-05-06 12:49 48.36054 11.78807 1485 ft 18 kts 263°
2026-05-06 12:50 48.36039 11.78619 1485 ft 19 kts 263°
2026-05-06 12:50 48.36024 11.78418 1476 ft 20 kts 263°
2026-05-06 12:50 48.36008 11.78207 1485 ft 21 kts 263°
2026-05-06 12:50 48.35991 11.77983 1471 ft 22 kts 263°
2026-05-06 12:51 48.35974 11.77746 1485 ft 23 kts 264°
2026-05-06 12:51 48.35953 11.77499 1485 ft 24 kts 262°
2026-05-06 12:51 48.35932 11.77243 1477 ft 25 kts 263°
2026-05-06 12:51 48.35943 11.77029 1477 ft 15 kts 313°
2026-05-06 12:52 48.36038 11.76971 1476 ft 16 kts 350°
2026-05-06 12:52 48.36144 11.76952 1485 ft 15 kts 354°
2026-05-06 12:52 48.36255 11.76949 1485 ft 16 kts 20°
2026-05-06 12:52 48.36302 11.77093 1485 ft 9 kts 84°
2026-05-06 12:53 48.36312 11.77218 1476 ft 31 kts 83°
2026-05-06 12:53 48.36368 11.77938 1479 ft 105 kts 83°
2026-05-06 12:53 48.36477 11.79351 1487 ft 164 kts 83°
2026-05-06 12:53 48.36609 11.81214 1746 ft 191 kts 82°
2026-05-06 12:54 48.36746 11.83224 2559 ft 194 kts 84°
2026-05-06 12:54 48.36932 11.85352 3118 ft 217 kts 76°
2026-05-06 12:54 48.37739 11.87379 3645 ft 243 kts 40°
2026-05-06 12:54 48.39352 11.88353 4092 ft 263 kts
2026-05-06 12:55 48.41181 11.87955 4796 ft 272 kts 336°
2026-05-06 12:55 48.42645 11.86132 5427 ft 280 kts 301°
2026-05-06 12:55 48.43585 11.83545 6209 ft 282 kts 297°
2026-05-06 12:55 48.44679 11.81053 6775 ft 289 kts 305°
2026-05-06 12:56 48.45941 11.78738 6949 ft 289 kts 309°
2026-05-06 12:56 48.47284 11.76485 6881 ft 289 kts 310°
2026-05-06 12:56 48.48646 11.74250 7205 ft 290 kts 310°
2026-05-06 12:56 48.50003 11.72002 8090 ft 289 kts 308°
2026-05-06 12:57 48.51342 11.69735 8901 ft 290 kts 307°
2026-05-06 12:57 48.52671 11.67439 9700 ft 291 kts 306°
2026-05-06 12:57 48.53999 11.65115 10412 ft 293 kts 306°
2026-05-06 12:57 48.55327 11.62767 11165 ft 296 kts 305°
2026-05-06 12:58 48.56788 11.60535 11905 ft 303 kts 316°
2026-05-06 12:58 48.58623 11.58789 12325 ft 325 kts 331°
2026-05-06 12:58 48.60810 11.57485 12466 ft 348 kts 335°
2026-05-06 12:58 48.63143 11.56149 12610 ft 368 kts 335°
2026-05-06 12:59 48.65576 11.54763 13041 ft 377 kts 335°
2026-05-06 12:59 48.68013 11.53374 13664 ft 381 kts 335°
2026-05-06 12:59 48.70506 11.51945 14255 ft 385 kts 335°
2026-05-06 12:59 48.73026 11.50492 14815 ft 389 kts 335°
2026-05-06 13:00 48.75563 11.49023 15395 ft 392 kts 335°
2026-05-06 13:00 48.78123 11.47540 15938 ft 395 kts 335°
2026-05-06 13:00 48.80698 11.46043 16482 ft 398 kts 335°
2026-05-06 13:00 48.83298 11.44529 17015 ft 402 kts 335°
2026-05-06 13:01 48.85924 11.42996 17554 ft 406 kts 335°
2026-05-06 13:01 48.88572 11.41453 18051 ft 410 kts 335°
2026-05-06 13:01 48.91244 11.39894 18473 ft 413 kts 335°
2026-05-06 13:01 48.93936 11.38320 18890 ft 416 kts 335°
2026-05-06 13:02 48.96651 11.36734 19322 ft 420 kts 335°
2026-05-06 13:02 48.99385 11.35135 19776 ft 422 kts 335°
2026-05-06 13:02 49.02136 11.33521 20201 ft 425 kts 335°
2026-05-06 13:02 49.04910 11.31890 20623 ft 428 kts 335°
2026-05-06 13:03 49.07703 11.30246 21038 ft 432 kts 335°
2026-05-06 13:03 49.10516 11.28591 21463 ft 435 kts 335°
2026-05-06 13:03 49.13349 11.26917 21896 ft 438 kts 335°
2026-05-06 13:03 49.16163 11.25253 22300 ft 441 kts 335°
2026-05-06 13:04 49.19051 11.23609 22694 ft 446 kts 339°
2026-05-06 13:04 49.22090 11.22523 23103 ft 453 kts 349°
2026-05-06 13:04 49.25251 11.22167 23480 ft 458 kts 358°
2026-05-06 13:04 49.28452 11.22205 23819 ft 461 kts 358°
2026-05-06 13:05 49.31668 11.22238 24167 ft 463 kts 358°
2026-05-06 13:05 49.34899 11.22260 24518 ft 465 kts 358°
2026-05-06 13:05 49.38144 11.22279 24862 ft 468 kts 358°
2026-05-06 13:05 49.41403 11.22296 25203 ft 470 kts 357°
2026-05-06 13:06 49.44676 11.22315 25612 ft 471 kts 358°
2026-05-06 13:06 49.47956 11.22342 26021 ft 472 kts 358°
2026-05-06 13:06 49.51244 11.22372 26366 ft 474 kts 358°
2026-05-06 13:06 49.54550 11.22403 26698 ft 476 kts 358°
2026-05-06 13:07 49.57873 11.22434 27024 ft 479 kts 358°
2026-05-06 13:07 49.61172 11.22450 27336 ft 481 kts 358°
2026-05-06 13:07 49.64526 11.22451 27651 ft 484 kts 357°
2026-05-06 13:07 49.67907 11.22427 27944 ft 487 kts 356°
2026-05-06 13:08 49.71294 11.22228 28227 ft 488 kts 354°
2026-05-06 13:08 49.74688 11.21845 28501 ft 490 kts 352°
2026-05-06 13:08 49.78090 11.21341 28781 ft 492 kts 351°
2026-05-06 13:08 49.81504 11.20785 29043 ft 495 kts 351°
2026-05-06 13:09 49.84935 11.20239 29313 ft 496 kts 351°
2026-05-06 13:09 49.88366 11.19732 29687 ft 496 kts 352°
2026-05-06 13:09 49.91825 11.19265 29797 ft 499 kts 352°
2026-05-06 13:10 49.98755 11.18414 29792 ft 499 kts 353°
2026-05-06 13:10 50.05636 11.17572 29793 ft 499 kts 352°
2026-05-06 13:10 50.09102 11.17133 29914 ft 500 kts 352°
2026-05-06 13:11 50.12565 11.16689 30250 ft 499 kts 352°
2026-05-06 13:11 50.16025 11.16243 30562 ft 499 kts 352°
2026-05-06 13:11 50.19486 11.15798 30884 ft 497 kts 351°
2026-05-06 13:11 50.22934 11.15355 31219 ft 496 kts 351°
2026-05-06 13:12 50.26365 11.14909 31550 ft 495 kts 351°
2026-05-06 13:12 50.29792 11.14458 31888 ft 493 kts 351°
2026-05-06 13:12 50.33210 11.14009 32223 ft 492 kts 351°
2026-05-06 13:12 50.36619 11.13568 32592 ft 490 kts 351°
2026-05-06 13:13 50.40018 11.13129 32897 ft 490 kts 351°
2026-05-06 13:13 50.43408 11.12689 33231 ft 488 kts 351°
2026-05-06 13:13 50.46745 11.12253 33531 ft 487 kts 351°
2026-05-06 13:13 50.50119 11.11810 33835 ft 486 kts 351°
2026-05-06 13:14 50.53489 11.11368 34082 ft 485 kts 351°
2026-05-06 13:14 50.56853 11.10928 34335 ft 484 kts 351°
2026-05-06 13:14 50.60211 11.10487 34572 ft 484 kts 351°
2026-05-06 13:14 50.63564 11.10047 34794 ft 483 kts 351°
2026-05-06 13:15 50.66912 11.09609 35006 ft 483 kts 351°
2026-05-06 13:15 50.69135 11.09315 35164 ft 482 kts 351°
2026-05-06 13:15 50.72491 11.08869 35384 ft 482 kts 351°
2026-05-06 13:15 50.76911 11.08283 35679 ft 482 kts 351°
2026-05-06 13:16 50.80262 11.07838 35766 ft 482 kts 351°
2026-05-06 13:16 50.85822 11.07099 35780 ft 481 kts 351°
2026-05-06 13:17 50.92488 11.06212 35786 ft 480 kts 352°
2026-05-06 13:17 50.99153 11.05328 35782 ft 480 kts 351°
2026-05-06 13:18 51.05824 11.04428 35784 ft 480 kts 351°
2026-05-06 13:18 51.12418 11.03541 35790 ft 478 kts 351°
2026-05-06 13:19 51.19052 11.02648 35794 ft 478 kts 352°
2026-05-06 13:19 51.25690 11.01763 35796 ft 479 kts 351°
2026-05-06 13:20 51.32329 11.00860 35810 ft 479 kts 352°
2026-05-06 13:20 51.38973 10.99949 35802 ft 479 kts 352°
2026-05-06 13:21 51.45573 10.99053 35803 ft 479 kts 352°
2026-05-06 13:21 51.52215 10.98150 35805 ft 479 kts 352°
2026-05-06 13:22 51.58857 10.97242 35809 ft 479 kts 352°
2026-05-06 13:22 51.65500 10.96329 35806 ft 479 kts 352°
2026-05-06 13:23 51.72145 10.95410 35810 ft 479 kts 352°
2026-05-06 13:23 51.78792 10.94492 35825 ft 479 kts 352°
2026-05-06 13:24 51.85430 10.93571 35820 ft 478 kts 352°
2026-05-06 13:24 51.92013 10.92654 35821 ft 478 kts 352°
2026-05-06 13:25 51.98640 10.91724 35824 ft 478 kts 352°
2026-05-06 13:25 52.05266 10.90794 35831 ft 477 kts 352°
2026-05-06 13:26 52.11882 10.89870 35830 ft 477 kts 352°
2026-05-06 13:26 52.18494 10.88937 35856 ft 476 kts 352°
2026-05-06 13:27 52.25097 10.88008 35835 ft 476 kts 352°
2026-05-06 13:27 52.31633 10.87085 35584 ft 475 kts 352°
2026-05-06 13:27 52.34942 10.86614 34838 ft 479 kts 352°
2026-05-06 13:28 52.38272 10.86143 34098 ft 480 kts 352°
2026-05-06 13:28 52.41595 10.85668 33297 ft 480 kts 352°
2026-05-06 13:28 52.44924 10.85186 32435 ft 480 kts 353°
2026-05-06 13:28 52.48253 10.84704 31593 ft 480 kts 353°
2026-05-06 13:29 52.51582 10.84224 30784 ft 479 kts 355°
2026-05-06 13:29 52.54896 10.83749 29998 ft 477 kts 356°
2026-05-06 13:29 52.58198 10.83279 29102 ft 475 kts 356°
2026-05-06 13:29 52.61480 10.82814 28379 ft 469 kts 356°
2026-05-06 13:30 52.64666 10.82362 27761 ft 463 kts 355°
2026-05-06 13:30 52.67854 10.81907 27111 ft 458 kts 355°
2026-05-06 13:30 52.71012 10.81450 26456 ft 453 kts 355°
2026-05-06 13:30 52.74143 10.80995 25801 ft 449 kts 355°
2026-05-06 13:31 52.77234 10.80546 25172 ft 444 kts 355°
2026-05-06 13:31 52.80298 10.80105 24587 ft 439 kts 355°
2026-05-06 13:31 52.83332 10.79673 23975 ft 435 kts 354°
2026-05-06 13:31 52.86334 10.79244 23355 ft 431 kts 354°
2026-05-06 13:32 52.89314 10.78810 22657 ft 428 kts 354°
2026-05-06 13:32 52.92236 10.78379 22038 ft 425 kts 354°
2026-05-06 13:32 52.95178 10.77943 21429 ft 422 kts 354°
2026-05-06 13:32 52.98094 10.77512 20834 ft 419 kts 354°
2026-05-06 13:33 53.00988 10.77086 20244 ft 416 kts 354°
2026-05-06 13:33 53.03860 10.76666 19670 ft 413 kts 353°
2026-05-06 13:33 53.06709 10.76248 19111 ft 410 kts 353°
2026-05-06 13:33 53.09543 10.75831 18559 ft 407 kts 353°
2026-05-06 13:34 53.12361 10.75418 18009 ft 404 kts 353°
2026-05-06 13:34 53.15160 10.75012 17386 ft 403 kts 353°
2026-05-06 13:34 53.17908 10.74614 16784 ft 400 kts 353°
2026-05-06 13:34 53.20677 10.74209 16183 ft 397 kts 353°
2026-05-06 13:35 53.23410 10.73803 15609 ft 393 kts 353°
2026-05-06 13:35 53.26125 10.73393 15037 ft 390 kts 354°
2026-05-06 13:35 53.28816 10.72983 14476 ft 388 kts 354°
2026-05-06 13:35 53.31504 10.72574 13913 ft 386 kts 355°
2026-05-06 13:36 53.34176 10.72179 13329 ft 384 kts 355°
2026-05-06 13:36 53.36829 10.71792 12721 ft 382 kts 355°
2026-05-06 13:36 53.39469 10.71408 12115 ft 378 kts 355°
2026-05-06 13:36 53.42047 10.71030 11531 ft 374 kts 356°
2026-05-06 13:37 53.44630 10.70755 10946 ft 367 kts
2026-05-06 13:37 53.47116 10.71425 10381 ft 358 kts 14°
2026-05-06 13:37 53.49885 10.72467 9746 ft 351 kts 15°
2026-05-06 13:37 53.52251 10.73353 9135 ft 345 kts 15°
2026-05-06 13:38 53.54517 10.74228 8880 ft 331 kts 14°
2026-05-06 13:38 53.56695 10.75073 8867 ft 313 kts 14°
2026-05-06 13:38 53.58775 10.75851 8869 ft 298 kts 13°
2026-05-06 13:38 53.60789 10.75930 8874 ft 287 kts 348°
2026-05-06 13:39 53.62588 10.74530 8879 ft 289 kts 323°
2026-05-06 13:39 53.63853 10.71890 8879 ft 294 kts 296°
2026-05-06 13:39 53.64314 10.68541 8883 ft 297 kts 270°
2026-05-06 13:39 53.64210 10.65089 8883 ft 294 kts 265°
2026-05-06 13:40 53.64030 10.61671 8879 ft 293 kts 264°
2026-05-06 13:40 53.63841 10.58236 8880 ft 296 kts 264°
2026-05-06 13:40 53.63649 10.54793 8878 ft 295 kts 264°
2026-05-06 13:40 53.63453 10.51340 8879 ft 298 kts 264°
2026-05-06 13:41 53.63238 10.47872 8873 ft 296 kts 260°
2026-05-06 13:41 53.62600 10.44603 8871 ft 295 kts 246°
2026-05-06 13:41 53.61762 10.41457 8873 ft 294 kts 245°
2026-05-06 13:41 53.60912 10.38399 8866 ft 291 kts 245°
2026-05-06 13:42 53.60042 10.35329 8861 ft 287 kts 244°
2026-05-06 13:42 53.59204 10.32388 8856 ft 270 kts 244°
2026-05-06 13:42 53.58407 10.29601 8878 ft 260 kts 244°
2026-05-06 13:42 53.57628 10.26878 8882 ft 258 kts 245°
2026-05-06 13:43 53.56854 10.24172 8881 ft 256 kts 244°
2026-05-06 13:43 53.56072 10.21437 8509 ft 262 kts 244°
2026-05-06 13:43 53.55261 10.18546 8117 ft 285 kts 244°
2026-05-06 13:43 53.54422 10.15488 7697 ft 290 kts 244°
2026-05-06 13:44 53.53582 10.12413 7298 ft 289 kts 244°
2026-05-06 13:44 53.52744 10.09332 6900 ft 290 kts 244°
2026-05-06 13:44 53.51897 10.06213 6505 ft 296 kts 244°
2026-05-06 13:44 53.51050 10.03081 6102 ft 301 kts 244°
2026-05-06 13:45 53.50184 9.99864 5687 ft 303 kts 244°
2026-05-06 13:45 53.48116 9.93601 4746 ft 307 kts 234°
2026-05-06 13:45 53.46921 9.90643 4268 ft 305 kts 234°
2026-05-06 13:46 53.45740 9.87741 3997 ft 295 kts 234°
2026-05-06 13:46 53.44610 9.84975 3999 ft 283 kts 234°
2026-05-06 13:46 53.43513 9.82273 3962 ft 274 kts 235°
2026-05-06 13:46 53.42473 9.79710 3966 ft 257 kts 234°
2026-05-06 13:47 53.41483 9.77280 3963 ft 250 kts 234°
2026-05-06 13:47 53.40483 9.74876 3669 ft 250 kts 233°
2026-05-06 13:47 53.39523 9.72542 3365 ft 243 kts 233°
2026-05-06 13:47 53.38642 9.70122 3054 ft 242 kts 251°
2026-05-06 13:48 53.38519 9.67405 2970 ft 234 kts 288°
2026-05-06 13:48 53.39262 9.65061 2983 ft 227 kts 317°
2026-05-06 13:48 53.40437 9.63363 2971 ft 218 kts 340°
2026-05-06 13:48 53.41869 9.62955 2981 ft 206 kts 14°
2026-05-06 13:49 53.43252 9.63552 2971 ft 202 kts 23°
2026-05-06 13:49 53.44549 9.64276 2995 ft 191 kts 24°
2026-05-06 13:49 53.45771 9.64975 3020 ft 183 kts 27°
2026-05-06 13:49 53.46782 9.66166 3014 ft 175 kts 51°
2026-05-06 13:50 53.47568 9.67734 3016 ft 176 kts 52°
2026-05-06 13:50 53.48086 9.68771 3016 ft 174 kts 52°
2026-05-06 13:50 53.48868 9.70334 3007 ft 175 kts 52°
2026-05-06 13:50 53.49650 9.71899 3009 ft 175 kts 51°
2026-05-06 13:51 53.50688 9.73972 3015 ft 176 kts 51°
2026-05-06 13:51 53.51475 9.75547 3009 ft 176 kts 52°
2026-05-06 13:51 53.52251 9.77105 2984 ft 170 kts 52°
2026-05-06 13:51 53.52759 9.78123 2899 ft 166 kts 51°
2026-05-06 13:52 53.53488 9.79586 2722 ft 161 kts 52°
2026-05-06 13:52 53.54196 9.81006 2520 ft 156 kts 51°
2026-05-06 13:52 53.54874 9.82369 2313 ft 152 kts 51°
2026-05-06 13:52 53.55548 9.83724 2107 ft 151 kts 51°
2026-05-06 13:53 53.56221 9.85077 1899 ft 148 kts 50°
2026-05-06 13:53 53.56859 9.86360 1705 ft 139 kts 50°
2026-05-06 13:53 53.57455 9.87559 1537 ft 129 kts 50°
2026-05-06 13:53 53.58025 9.88706 1350 ft 127 kts 50°
2026-05-06 13:54 53.58591 9.89846 1160 ft 126 kts 50°
2026-05-06 13:54 53.59159 9.90990 981 ft 128 kts 51°
2026-05-06 13:54 53.59726 9.92134 797 ft 126 kts 51°
2026-05-06 13:54 53.60289 9.93269 610 ft 127 kts 50°
2026-05-06 13:55 53.60843 9.94386 442 ft 127 kts 52°
2026-05-06 13:55 53.61401 9.95515 273 ft 130 kts 51°
2026-05-06 13:55 53.61895 9.96510 114 ft 129 kts 51°
2026-05-06 13:55 53.62457 9.97638 42 ft 118 kts 54°
2026-05-06 13:56 53.62918 9.98582 45 ft 84 kts 50°
2026-05-06 13:56 53.63088 9.99005 46 ft 29 kts 75°
2026-05-06 13:56 53.63089 9.99183 47 ft 4 kts 95°
2026-05-06 13:56 53.63088 9.99206 47 ft 0 kts 95°
2026-05-06 13:57 53.63088 9.99209 47 ft 0 kts 95°
2026-05-06 13:58 53.63087 9.99220 47 ft 0 kts 94°
2026-05-06 13:58 53.63086 9.99252 47 ft 3 kts 95°
2026-05-06 13:58 53.63085 9.99313 47 ft 10 kts 84°
2026-05-06 13:59 53.63111 9.99428 46 ft 0 kts 57°
2026-05-06 13:59 53.63118 9.99446 44 ft 7 kts 56°
2026-05-06 13:59 53.63162 9.99548 46 ft 16 kts 54°
2026-05-06 13:59 53.63214 9.99674 49 ft 3 kts 63°
2026-05-06 14:00 53.63218 9.99736 49 ft 11 kts 101°
2026-05-06 14:00 53.63130 9.99843 49 ft 18 kts 153°
2026-05-06 14:00 53.63027 9.99931 48 ft 13 kts 153°
2026-05-06 14:00 53.62949 9.99998 48 ft 12 kts 153°
2026-05-06 14:01 53.62903 10.00032 48 ft 6 kts 161°
2026-05-06 14:01 53.62860 10.00061 48 ft 8 kts 156°
2026-05-06 14:01 53.62805 10.00106 48 ft 10 kts 154°
2026-05-06 14:01 53.62739 10.00164 48 ft 11 kts 150°
2026-05-06 14:02 53.62721 10.00245 48 ft 8 kts 75°
2026-05-06 14:02 53.62732 10.00285 48 ft 3 kts 63°
2026-05-06 14:02 53.62738 10.00302 48 ft 1 kts 62°
2026-05-06 14:02 53.62739 10.00307 48 ft 0 kts 62°